This demonstration page uses our WeatherBlox Daily Observations layout. Learn more.

39.29038, -76.61219

Hourly Observations for June 4, 2019

Temp ( °F °C ) Dew Point ( °F °C ) Humidity (%) Winds ( mph kmh ) Pressure ( in mb ) Visibility ( mi km ) Precip ( " mm )
12:54 am 00:54 undefined 63 17.2 38 3.3 40 40 undefined N/A 30.09 1019 N/A 0 0
1:54 am 01:54 undefined 62 16.7 39 3.9 43 43 undefined N/A 30.09 1019 N/A 0 0
2:54 am 02:54 undefined 61 16.1 38 3.3 43 43 undefined N/A 30.09 1019 N/A 0 0
3:54 am 03:54 undefined 60 15.6 38 3.3 44 44 undefined N/A 30.09 1019 N/A 0 0
4:54 am 04:54 undefined 57 13.9 40 4.4 53 53 undefined N/A 30.12 1020 N/A 0 0
5:54 am 05:54 undefined 57 13.9 39 3.9 51 51 undefined N/A 30.15 1021 N/A 0 0
6:54 am 06:54 undefined 60 15.6 38 3.3 44 44 undefined N/A 30.18 1022 N/A 0 0
7:54 am 07:54 undefined 62 16.7 40 4.4 44 44 undefined N/A 30.18 1022 N/A 0 0
8:54 am 08:54 undefined 64 17.8 38 3.3 38 38 undefined N/A 30.18 1022 N/A 0 0
9:54 am 09:54 undefined 67 19.4 38 3.3 35 35 undefined N/A 30.18 1022 N/A 0 0
10:54 am 10:54 undefined 69 20.6 40 4.4 35 35 undefined N/A 30.18 1022 N/A 0 0
11:54 am 11:54 undefined 70 21.1 35 1.7 28 28 undefined N/A 30.15 1021 N/A 0 0
12:54 pm 12:54 undefined 74 23.3 39 3.9 28 28 undefined N/A 30.15 1021 N/A 0 0
1:54 pm 13:54 undefined 75 23.9 38 3.3 26 26 undefined N/A 30.12 1020 N/A 0 0
2:54 pm 14:54 undefined 75 23.9 39 3.9 27 27 undefined N/A 30.12 1020 N/A 0 0
3:54 pm 15:54 undefined 76 24.4 41 5 29 29 undefined N/A 30.06 1018 N/A 0 0
4:54 pm 16:54 undefined 77 25 41 5 28 28 undefined N/A 30.03 1017 N/A 0 0
5:54 pm 17:54 undefined 76 24.4 42 5.6 30 30 undefined N/A 30.03 1017 N/A 0 0
6:54 pm 18:54 undefined 75 23.9 42 5.6 31 31 undefined N/A 30.03 1017 N/A 0 0
7:54 pm 19:54 undefined 75 23.9 46 7.8 36 36 undefined N/A 30.03 1017 N/A 0 0
8:54 pm 20:54 undefined 73 22.8 48 8.9 41 41 undefined N/A 30 1016 N/A 0 0
9:54 pm 21:54 undefined 72 22.2 48 8.9 43 43 undefined N/A 30 1016 N/A 0 0
10:54 pm 22:54 undefined 70 21.1 49 9.4 47 47 undefined N/A 30.03 1017 N/A 0 0
11:54 pm 23:54 undefined 69 20.6 50 10 51 51 undefined N/A 30.03 1017 N/A 0 0

Powered by AerisWeather